User: anonymous   Login
Location: *
(50.9167°S, 179.4000°W)
Time: 19:44:54
(UTC+00:00)
Language:

H-2A R/B - Orbit

View from above orbital plane
View from above orbital plane
View from above satellite
View from above satellite

Ground track
Ground track

The orbit data is extracted from the following two-line orbital elements,

1 27601U 02056E   24140.87365649  .00001186  00000-0  43781-3 0  9990
2 27601  98.2287 119.3498 0070561 326.9208  94.6538 14.32802363119714
Epoch (UTC): 19 May 2024 20:58:03
Eccentricity: 0.0070561
inclination: 98.2287°
perigee height: 732 km
apogee height: 833 km
right ascension of ascending node: 119.3498°
argument of perigee: 326.9208°
revolutions per day: 14.32802363
mean anomaly at epoch: 94.6538°
orbit number at epoch: 11971

The dashed part of the orbit path shows where the satellite is in the earth's shadow,  

DLR